This is the latest recevied weather packets stored in our database for station/object EA1FBN. If no packets are shown the sender has not sent any weather packets the latest 10 day(s).
| Time | Temp. | Humidity | Pressure | Rain* | Wind** | Luminosity | Snow |
|---|---|---|---|---|---|---|---|
| 1778153400 | 17.78° C | 54% | 1011 hPa | 0 mm | - | - | - |
| 1778153100 | 17.78° C | 54% | 1011.1 hPa | 0 mm | - | - | - |
| 1778152800 | 17.22° C | 56% | 1011.2 hPa | 0 mm | - | - | - |
| 1778152500 | 16.67° C | 53% | 1011.2 hPa | 0 mm | - | - | - |
| 1778152200 | 17.22° C | 52% | 1011.3 hPa | 0 mm | - | - | - |
| 1778151900 | 17.22° C | 54% | 1011.4 hPa | 0 mm | - | - | - |
| 1778151600 | 17.22° C | 54% | 1011.4 hPa | 0 mm | - | - | - |
| 1778151300 | 16.67° C | 55% | 1011.5 hPa | 0 mm | - | - | - |
| 1778151001 | 16.67° C | 54% | 1011.6 hPa | 0 mm | - | - | - |
| 1778150701 | 16.67° C | 54% | 1011.6 hPa | 0 mm | - | - | - |
| 1778150401 | 16.67° C | 56% | 1011.7 hPa | 0 mm | - | - | - |
| 1778150101 | 16.11° C | 55% | 1011.7 hPa | 0 mm | - | - | - |
| 1778149801 | 16.11° C | 55% | 1011.8 hPa | 0 mm | - | - | - |
| 1778149501 | 16.11° C | 55% | 1011.8 hPa | 0 mm | - | - | - |
| 1778149201 | 16.11° C | 56% | 1011.8 hPa | 0 mm | - | - | - |
| 1778148901 | 15.56° C | 56% | 1011.8 hPa | 0 mm | - | - | - |
| 1778148601 | 16.11° C | 57% | 1011.9 hPa | 0 mm | - | - | - |
| 1778148301 | 16.11° C | 61% | 1011.9 hPa | 0 mm | - | - | - |
| 1778148001 | 15.56° C | 63% | 1011.9 hPa | 0 mm | - | - | - |
| 1778147701 | 15.56° C | 64% | 1012 hPa | 0 mm | - | - | - |
| 1778147401 | 15° C | 63% | 1012 hPa | 0 mm | - | - | - |
| 1778147101 | 14.44° C | 64% | 1012.1 hPa | 0 mm | - | - | - |
| 1778146801 | 13.89° C | 66% | 1012.1 hPa | 0 mm | - | - | - |
| 1778146501 | 13.89° C | 68% | 1012.1 hPa | 0 mm | - | - | - |
| 1778146201 | 13.89° C | 70% | 1012.2 hPa | 0 mm | - | - | - |
* Rain latest hour (hover to see other rain measurements)
** Current wind speed in m/s (hover to see current wind gust speed)